User: anonymous   Login
Location: ???????
(55.9142°N, 37.8256°E)
Time: 08:17:39
(UTC+00:00)
Language:

Cosmos 1470 Rocket - Orbit

View from above orbital plane
View from above orbital plane
View from above satellite
View from above satellite

Ground track
Ground track

The orbit data is extracted from the following two-line orbital elements,

1 14148U 83061B   24166.71118188  .00000622  00000-0  70793-4 0  9990
2 14148  82.5192  36.0429 0020904 185.6000 174.4985 14.84492730192446
Epoch (UTC): 14 June 2024 17:04:06
Eccentricity: 0.0020904
inclination: 82.5192°
perigee height: 600 km
apogee height: 630 km
right ascension of ascending node: 36.0429°
argument of perigee: 185.6000°
revolutions per day: 14.84492730
mean anomaly at epoch: 174.4985°
orbit number at epoch: 19244

The dashed part of the orbit path shows where the satellite is in the earth's shadow,  

DLR